Weather History for Gilze-Rijen, Netherlands

Change the Weather History Date:

Tuesday, December 24, 2013

  Actual Average Record
Temperature  
Mean Temperature 48 °F -  
Max Temperature 52 °F 41 °F 55 °F (1997)
Min Temperature 44 °F 31 °F 21 °F (1996)
Degree Days  
Heating Degree Days 17    
Moisture  
Dew Point 44 °F    
Average Humidity 79    
Maximum Humidity 93    
Minimum Humidity 55    
Precipitation  
Precipitation 0.28 in - - ()
Sea Level Pressure  
Sea Level Pressure 29.17 in    
Wind  
Wind Speed 25 mph ()    
Max Wind Speed 34 mph    
Max Gust Speed 53 mph    
Visibility 7.0 miles    
Events Rain    
Averages and records for this station are not official NWS values.
T = Trace of Precipitation, MM = Missing Value Source: Averaged Metar Reports

Daily Weather History Graph

Daily Weather History Graph

Search for Another Location

Airport:

Trip Planner

Search our weather history database for the weather conditions in past years. The results will help you decide how hot, cold, wet, or windy it might be!

Date:

Astronomy

Dec. 24, 2013 Rise Set
Actual Time 8:45 AM CET 4:34 PM CET
Civil Twilight 8:04 AM CET 5:15 PM CET
Nautical Twilight 7:21 AM CET 5:58 PM CET
Astronomical Twilight 6:40 AM CET 6:39 PM CET
Moon No Moon Rise 11:47 AM CET (12/24)
Length of Visible Light 9h 10m
Length of Day
7h 49m
Waning Gibbous, 61% of the Moon is Illuminated
Dec 24
Waning Gibbous
Dec 25
Last Quarter
Jan 1
New
Jan 8
First Quarter
Jan 16
Full

Hourly Weather History & Observations

Time (CET) Temp. Windchill Dew Point Humidity Pressure Visibility Wind Dir Wind Speed Gust Speed Precip Events Conditions
12:00 AM 54 °F - 43 °F 57% 29.38 in 22 mi SSW 26.8 mph - -   Partly Cloudy
12:25 AM 51.8 °F - 44.6 °F 76% 29.36 in 6.2 mi SSW 26.5 mph 41.4 mph N/A Rain Light Rain
12:55 AM 53.6 °F - 42.8 °F 67% 29.36 in 6.2 mi SSW 27.6 mph 42.6 mph N/A   Overcast
1:00 AM 54 °F - 42 °F 55% 29.35 in 28 mi SSW 29.1 mph - - Rain Rain
1:25 AM 53.6 °F - 42.8 °F 67% 29.33 in 6.2 mi SSW 28.8 mph 44.9 mph N/A   Mostly Cloudy
1:55 AM 51.8 °F - 42.8 °F 71% 29.33 in 6.2 mi SSW 27.6 mph 39.1 mph N/A   Drizzle
2:00 AM 51 °F - 43 °F 67% 29.32 in 15 mi South 26.8 mph - - Rain Drizzle
2:25 AM 51.8 °F - 42.8 °F 71% 29.30 in 6.2 mi SSW 28.8 mph 43.7 mph N/A Rain Drizzle
2:55 AM 51.8 °F - 42.8 °F 71% 29.30 in 6.2 mi South 31.1 mph 43.7 mph N/A   Light Drizzle
3:00 AM 51 °F - 42 °F 64% 29.29 in 17 mi SSW 31.3 mph - - Rain Light Drizzle
3:25 AM 51.8 °F - 42.8 °F 71% 29.27 in 6.2 mi SSW 31.1 mph - N/A   Drizzle
3:55 AM 51.8 °F - 42.8 °F 71% 29.27 in 6.2 mi South 28.8 mph 41.4 mph N/A   Light Drizzle
4:00 AM 51 °F - 43 °F 65% 29.26 in 22 mi South 29.1 mph - - Rain Light Drizzle
4:25 AM 51.8 °F - 42.8 °F 71% 29.24 in 6.2 mi South 31.1 mph 42.6 mph N/A   Drizzle
4:55 AM 51.8 °F - 42.8 °F 71% 29.21 in 6.2 mi South 32.2 mph 43.7 mph N/A   Mostly Cloudy
5:00 AM 52 °F - 42 °F 60% 29.22 in 28 mi South 31.3 mph - - Rain Rain
5:25 AM 51.8 °F - 42.8 °F 71% 29.21 in 6.2 mi South 32.2 mph 46.0 mph N/A   Light Drizzle
5:55 AM 51.8 °F - 42.8 °F 71% 29.18 in 6.2 mi South 32.2 mph 43.7 mph N/A   Overcast
6:00 AM 52 °F - 43 °F 61% 29.19 in 28 mi South 33.6 mph - - Rain Rain
6:25 AM 51.8 °F - 42.8 °F 71% 29.18 in 6.2 mi SSW 34.5 mph 49.5 mph N/A Rain Light Rain
6:55 AM 51.8 °F - 42.8 °F 71% 29.18 in 6.2 mi South 33.4 mph 49.5 mph N/A Rain Light Rain
7:00 AM 51 °F - 43 °F 66% 29.18 in 19 mi SSW 33.6 mph - - Rain Light Rain Showers
7:25 AM 50.0 °F - 44.6 °F 82% 29.18 in 6.2 mi SSW 29.9 mph 46.0 mph N/A Rain Light Rain Showers
7:34 AM 50.0 °F - 44.6 °F 82% 29.18 in 6.2 mi SSW 33.4 mph 44.9 mph N/A Rain Light Rain
7:38 AM 50.0 °F - 44.6 °F 82% 29.18 in 6.2 mi SSW 32.2 mph 44.9 mph N/A Rain Light Rain
7:55 AM 50.0 °F - 44.6 °F 82% 29.18 in 6.2 mi SSW 32.2 mph 46.0 mph N/A   Light Drizzle
8:00 AM 49 °F - 44 °F 77% 29.18 in 28 mi SSW 31.3 mph - - Rain Light Drizzle
8:01 AM 50.0 °F - 44.6 °F 82% 29.18 in 6.2 mi SSW 32.2 mph - N/A   Mostly Cloudy
8:03 AM 50.0 °F - 44.6 °F 82% 29.18 in 6.2 mi SSW 32.2 mph - N/A   Overcast
8:09 AM 50.0 °F - 44.6 °F 82% 29.18 in 6.2 mi SSW 32.2 mph - N/A   Overcast
8:20 AM 50.0 °F - 44.6 °F 82% 29.18 in 6.2 mi SSW 32.2 mph 43.7 mph N/A   Overcast
8:25 AM 50.0 °F - 44.6 °F 82% 29.15 in 6.2 mi SSW 34.5 mph 52.9 mph N/A   Overcast
8:33 AM 50.0 °F - 42.8 °F 76% 29.15 in 6.2 mi SSW 33.4 mph 52.9 mph N/A   Overcast
8:38 AM 50.0 °F - 42.8 °F 76% 29.15 in 6.2 mi SSW 32.2 mph 52.9 mph N/A   Overcast
8:39 AM 51.8 °F - 42.8 °F 71% 29.15 in 6.2 mi SSW 31.1 mph 44.9 mph N/A   Overcast
8:51 AM 51.8 °F - 42.8 °F 71% 29.15 in 6.2 mi SSW 32.2 mph 48.3 mph N/A   Overcast
8:55 AM 51.8 °F - 42.8 °F 71% 29.18 in 6.2 mi SSW 31.1 mph 44.9 mph N/A   Overcast
8:56 AM 51.8 °F - 44.6 °F 76% 29.18 in 6.2 mi SSW 31.1 mph 44.9 mph N/A   Overcast
9:00 AM 51 °F - 44 °F 68% 29.18 in 28 mi SSW 33.6 mph - - Rain Drizzle
9:09 AM 51.8 °F - 44.6 °F 76% 29.15 in 6.2 mi SSW 33.4 mph 48.3 mph N/A   Overcast
9:25 AM 51.8 °F - 44.6 °F 76% 29.18 in 6.2 mi SSW 32.2 mph 47.2 mph N/A   Overcast
9:31 AM 51.8 °F - 44.6 °F 76% 29.18 in 6.2 mi SSW 33.4 mph 47.2 mph N/A   Overcast
9:34 AM 51.8 °F - 44.6 °F 76% 29.18 in 6.2 mi SSW 32.2 mph 44.9 mph N/A   Overcast
9:37 AM 51.8 °F - 44.6 °F 76% 29.18 in 6.2 mi SSW 33.4 mph 44.9 mph N/A   Overcast
9:40 AM 51.8 °F - 44.6 °F 76% 29.18 in 6.2 mi SSW 32.2 mph 48.3 mph N/A Rain Light Rain
9:55 AM 51.8 °F - 44.6 °F 76% 29.15 in 6.2 mi SSW 32.2 mph 48.3 mph N/A   Drizzle
10:00 AM 51 °F - 45 °F 74% 29.18 in 11 mi SSW 31.3 mph - - Rain Drizzle
10:25 AM 50.0 °F - 46.4 °F 87% 29.15 in 6.2 mi SSW 29.9 mph 42.6 mph N/A   Light Drizzle
10:55 AM 51.8 °F - 46.4 °F 82% 29.18 in 6.2 mi SSW 32.2 mph 43.7 mph N/A Rain Drizzle
11:00 AM 51 °F - 46 °F 76% 29.18 in 9 mi SSW 31.3 mph - - Rain Drizzle
11:25 AM 51.8 °F - 46.4 °F 82% 29.18 in 6.2 mi SSW 32.2 mph 49.5 mph N/A   Drizzle
11:55 AM 50.0 °F - 46.4 °F 87% 29.15 in 6.2 mi SSW 28.8 mph 42.6 mph N/A Rain Light Rain
12:00 PM 51 °F - 47 °F 80% 29.16 in 10 mi SSW 31.3 mph - - Rain Heavy Rain
12:25 PM 50.0 °F - 46.4 °F 87% 29.15 in 6.2 mi SSW 27.6 mph 40.3 mph N/A   Light Drizzle
12:55 PM 51.8 °F - 46.4 °F 82% 29.12 in 6.2 mi South 28.8 mph 42.6 mph N/A Rain Drizzle
1:00 PM 51 °F - 47 °F 80% 29.14 in 9 mi South 29.1 mph - - Rain Light Rain
1:25 PM 51.8 °F - 46.4 °F 82% 29.12 in 6.2 mi South 29.9 mph 42.6 mph N/A   Overcast
1:55 PM 51.8 °F - 46.4 °F 82% 29.12 in 6.2 mi SSW 27.6 mph 39.1 mph N/A Rain Light Rain
2:00 PM 52 °F - 47 °F 78% 29.13 in 10 mi SSW 26.8 mph - - Rain Light Rain
2:25 PM 51.8 °F - 48.2 °F 88% 29.12 in 6.2 mi SSW 27.6 mph - N/A   Drizzle
2:55 PM 51.8 °F - 48.2 °F 88% 29.09 in 6.2 mi South 26.5 mph - N/A   Drizzle
3:00 PM 51 °F - 47 °F 83% 29.11 in 9 mi South 31.3 mph - - Rain Drizzle
3:25 PM 51.8 °F - 48.2 °F 88% 29.09 in 6.2 mi South 26.5 mph - N/A   Drizzle
3:55 PM 51.8 °F - 48.2 °F 88% 29.09 in 6.2 mi SSW 25.3 mph - N/A Rain Light Rain
3:59 PM 51.8 °F - 48.2 °F 88% 29.09 in 6.2 mi SSW 25.3 mph - N/A Rain Drizzle
4:00 PM 51 °F - 48 °F 85% 29.10 in 9 mi South 24.6 mph - - Rain Light Rain
4:25 PM 51.8 °F - 48.2 °F 88% 29.09 in 6.2 mi South 25.3 mph - N/A Rain Light Rain
4:39 PM 51.8 °F - 48.2 °F 88% 29.09 in 3.1 mi WSW 16.1 mph - N/A Rain Rain
4:43 PM 48.2 °F - 46.4 °F 93% 29.12 in 4.3 mi WSW 17.3 mph 28.8 mph N/A Rain Heavy Rain Showers
4:51 PM 48.2 °F - 44.6 °F 87% 29.12 in 6.2 mi WSW 17.3 mph 29.9 mph N/A Rain Rain Showers
4:55 PM 48.2 °F - 44.6 °F 87% 29.12 in 6.2 mi WSW 15.0 mph 27.6 mph N/A Rain Light Rain Showers
5:00 PM 49 °F - 45 °F 80% 29.13 in 9 mi WSW 13.4 mph - - Rain Light Rain
5:05 PM 48.2 °F - 44.6 °F 87% 29.12 in 6.2 mi WSW 13.8 mph - N/A Rain Light Rain
5:15 PM 48.2 °F - 44.6 °F 87% 29.12 in 6.2 mi WSW 12.7 mph - N/A Rain Light Rain
5:25 PM 48.2 °F - 44.6 °F 87% 29.12 in 6.2 mi SW 9.2 mph - N/A Rain Light Rain Showers
5:55 PM 48.2 °F - 44.6 °F 87% 29.12 in 6.2 mi SW 9.2 mph - N/A Rain Light Rain
6:00 PM 48 °F - 45 °F 87% 29.15 in 16 mi SW 8.9 mph - - Rain Heavy Rain
6:25 PM 48.2 °F - 44.6 °F 87% 29.15 in 6.2 mi SW 9.2 mph - N/A Rain Light Rain
6:55 PM 46.4 °F 42.4 °F 44.6 °F 93% 29.12 in 6.2 mi SSW 8.1 mph - N/A Rain Light Rain
7:00 PM 47 °F - 44 °F 86% 29.15 in 22 mi SSW 8.9 mph - - Rain Heavy Rain
7:25 PM 46.4 °F 41.9 °F 44.6 °F 93% 29.15 in 6.2 mi SSW 9.2 mph - N/A Rain Light Rain Showers
7:55 PM 46.4 °F 40.7 °F 42.8 °F 87% 29.18 in 6.2 mi SSW 12.7 mph - N/A Rain Light Rain
8:00 PM 47 °F - 43 °F 82% 29.18 in 9 mi SSW 13.4 mph - - Rain Rain
8:25 PM 46.4 °F 40.4 °F 42.8 °F 87% 29.15 in 6.2 mi SSW 13.8 mph - N/A Rain Light Rain
8:55 PM 46.4 °F 40.4 °F 42.8 °F 87% 29.12 in 6.2 mi South 13.8 mph - N/A   Mostly Cloudy
9:00 PM 46 °F - 42 °F 80% 29.16 in 28 mi South 13.4 mph - - Rain Rain
9:25 PM 46.4 °F 41.1 °F 42.8 °F 87% 29.15 in 6.2 mi South 11.5 mph - N/A   Mostly Cloudy
9:55 PM 46.4 °F 40.7 °F 41.0 °F 81% 29.12 in 6.2 mi South 12.7 mph - N/A   Overcast
10:00 PM 46 °F - 42 °F 80% 29.14 in 28 mi South 11.2 mph - -   Partly Cloudy
10:25 PM 44.6 °F 38.8 °F 42.8 °F 93% 29.15 in 6.2 mi South 11.5 mph - N/A   Mostly Cloudy
10:55 PM 44.6 °F 39.7 °F 42.8 °F 93% 29.12 in 6.2 mi South 9.2 mph - N/A   Mostly Cloudy
11:00 PM 45 °F - 42 °F 85% 29.13 in 28 mi South 8.9 mph - -   Partly Cloudy
11:25 PM 44.6 °F 39.2 °F 42.8 °F 93% 29.12 in 6.2 mi South 10.4 mph - N/A   Overcast
11:55 PM 46.4 °F 42.4 °F 42.8 °F 87% 29.12 in 6.2 mi SSE 8.1 mph - N/A   Drizzle